Location: Newark
(23.1300°N, 73.6109°E)
Time: 22:54:59
(UTC+00:00)

NOAA 18 - Pass Details

Date: 19 June 2021
Orbit: 840 x 861 km, 99.0° (Epoch: 27 July)

Event Time Altitude Azimuth Distance (km) Brightness Sun altitude
Exits shadow 15:31:44 18° 73° (ENE) 1,998 6.8 -20.0°
Maximum altitude 15:31:59 18° 69° (ENE) 1,996 6.8 -20.0°
Drops below altitude 10° 15:35:30 10° 29° (NNE) 2,488 7.7 -20.7°
Sets 15:38:39 0° 11° (N) 3,430 8.7 -21.2°
